Flag for Germany Weather past 2 weeks in Sonthofen, Bavaria, Germany

Now
54 °F

Light rain. Overcast.


Feels Like: 54 °F
Forecast: 51 / 69 °F
Wind: 1 mph from West

Location: Kempten

Current Time: Jul 30, 2015 at 12:13:37 AM

Latest Report: Jul 29, 2015 at 10:00 PM


Visibility: 4 mi

Pressure: 29.98 "Hg (27.42 "Hg at 748m altitude)

Humidity: 94%

Dew point: 52 °F

Location of SonthofenLocation

Historic Weather in Sonthofen — Graph

°F

Sonthofen temperature yesterday

Maximum temperature yesterday: 64 °F (at 12:00 PM)
Minimum temperature yesterday: 53 °F (at 4:00 AM)
Average temperature yesterday: 57 °F

Past Weeks' High & Low Weather Summary

 TemperatureHumidityPressure
High90 °F (Jul 17, 3:00 PM)96% (Jul 24, 5:00 AM)30.16 "Hg (Jul 24, 5:00 AM)
Low47 °F (Jul 26, 7:00 AM)24% (Jul 17, 3:00 PM)29.64 "Hg (Jul 24, 6:00 PM)
Average68 °F66%29.92 "Hg
* Reported Jul 14 10:00 PM — Jul 29 10:00 PM, Sonthofen, Weather by CustomWeather, © 2015

Note: Actual official high and low records may vary slightly from our data, if they occured in-between our weather recording intervals... More about our weather records

Advertising

Sonthofen weather history for previous 24 hours

 ConditionsComfort  
Time TempWeatherWind HumidityBarometerVisibility
10:00 PM
Wed, Jul 29
54 °FLight rain. Overcast.1 mph94%29.98 "Hg4 mi
9:00 PM55 °FLight rain. Low clouds.3 mph93%29.94 "Hg5 mi
8:00 PM58 °FLight rain. Overcast.2 mph94%29.90 "Hg3 mi
7:00 PM59 °FDrizzle. Overcast.2 mph91%29.88 "Hg13 mi
6:00 PM59 °FLight rain. Overcast.3 mph90%29.87 "Hg5 mi
5:00 PM60 °FOvercast.3 mph87%29.84 "Hg28 mi
4:00 PM60 °FLight freezing rain. Overcast.2 mph87%29.84 "Hg5 mi
3:00 PM60 °FDrizzle. Overcast.3 mph85%29.83 "Hg13 mi
2:00 PM60 °FLight rain. Overcast.2 mph82%29.83 "Hg11 mi
1:00 PM61 °FLight rain. Overcast.3 mph77%29.82 "Hg8 mi
12:00 PM64 °FLight rain. Overcast.3 mph65%29.79 "Hg22 mi
10:00 AM62 °FOvercast.2 mph68%29.82 "Hg28 mi
9:00 AM59 °FOvercast.2 mph78%29.85 "Hg22 mi
8:00 AM56 °FDrizzle. Overcast.3 mph85%29.88 "Hg15 mi
7:00 AM54 °FOvercast.3 mph90%29.90 "Hg28 mi
6:00 AM53 °FDrizzle. Overcast.3 mph90%29.92 "Hg22 mi
4:00 AM53 °FOvercast.3 mph87%29.94 "Hg22 mi
3:00 AM54 °FOvercast.2 mph84%29.93 "Hg28 mi
2:00 AM54 °FLight rain. Overcast.2 mph84%29.94 "Hg22 mi
1:00 AM55 °FLight rain. Overcast.3 mph79%29.95 "Hg22 mi
Weather by CustomWeather, © 2015

See weather overviewHow to use our weather pages